Regional Weather Roundup
Issued by NWS

Home | Current Version | Previous Version | Graphics & Text | Print | Product List | Glossary On
Versions: 1 2 3 4 5 6 7 8 9 10 11 12 13 14 15 16 17 18 19 20 21 22 23 24 25 26 27 28 29 30 31 32 33 34 35 36 37 38 39 40 41 42 43 44 45 46 47 48 49 50
000
ASUS43 KLSX 271907
RWRMO

WEATHER SUMMARY FOR MISSOURI
NATIONAL WEATHER SERVICE SPRINGFIELD MO
200 PM CDT MON APR 27 2015

NOTE: "FAIR" INDICATES FEW OR NO CLOUDS BELOW 12,000 FEET WITH NO
       SIGNIFICANT WEATHER AND/OR OBSTRUCTIONS TO VISIBILITY.
       CURRENT SKY AND/OR WEATHER CONDITIONS ARE NOT AVAILABLE FOR
       CHILLICOTHE AND FARMINGTON.

MOZ001>031-035>038-043-044-053-054-272000-
...NORTHERN AND WESTERN MISSOURI...

CITY           SKY/WX    TMP DP  RH WIND       PRES   REMARKS
KANSAS CTY INT PTSUNNY   64  36  35 NE14      30.12F
KANSAS C DTWN  MOSUNNY   65  35  33 E14G21    30.09F
LEE`S SUMMIT   MOSUNNY   62  32  32 NE12G21   30.11S
ST JOSEPH      MOSUNNY   65  35  33 NE13G21   30.13F
CHILLICOTHE      N/A     67  35  30 VRB7      30.12F
KIRKSVILLE     SUNNY     66  36  32 N14G23    30.12F

$$
MOZ066>068-077>081-088>096-101>105-272000-
...SOUTHWEST MISSOURI...

CITY           SKY/WX    TMP DP  RH WIND       PRES   REMARKS
SPRINGFIELD    SUNNY     63  32  31 NE15G24   30.01F
JOPLIN         MOSUNNY   62  34  35 NE22G32   29.99F

$$
MOZ032>034-039>042-045>050-055>058-069>072-272000-
...CENTRAL MISSOURI...

CITY           SKY/WX    TMP DP  RH WIND       PRES   REMARKS
COLUMBIA       MOSUNNY   64  37  36 NE17      30.09F
JEFFERSON CITY MOSUNNY   64  33  31 NE8G22    30.08F
SEDALIA        MOSUNNY   65  36  34 NE17G26   30.10F
WHITEMAN AFB   PTSUNNY   65  37  35 NE10G22   30.08F
WARRENSBURG    MOSUNNY   64  32  29 NE12G21   30.10S
OSAGE BEACH    SUNNY     64  36  34 NE10G20   30.07F

$$
MOZ051-052-059>065-272000-
...EAST CENTRAL MISSOURI...

CITY           SKY/WX    TMP DP  RH WIND       PRES   REMARKS
ST LOUIS INTL  MOSUNNY   64  36  35 N10G22    30.09F
SPIRIT OF STL  MOSUNNY   64  35  34 N12       30.08F
ST CHARLES     MOSUNNY   64  39  39 N14       30.08F

$$
MOZ072>076-082>087-097>100-106>115-272000-
...SOUTH CENTRAL AND SOUTHEAST MISSOURI...

CITY           SKY/WX    TMP DP  RH WIND       PRES   REMARKS
CAPE GIRARDEAU SUNNY     65  38  36 N18G24    30.03F
FARMINGTON     SUNNY     63  37  39 NE13G22   30.10F
POPLAR BLUFF   MOSUNNY   65  37  35 NE13G18   30.02F
WEST PLAINS    MOSUNNY   63  34  33 E16G23    30.02F

$$



USA.gov is the U.S. government's official web portal to all federal, state and local government web resources and services.